Content
SEND FEEDBACK

Daily
Averages
Monthly
Summary
United States of America

SULPHUR, LOUISIANA


Home > North America > United States > Louisiana
Elevation: 10 feet     Latitude: 30 13N     Longitude: 093 23W

WEATHER
 
SELECT A DAY
Number of Records: 187,190;   Date Range: 11/22/06 - 7/7/14
 
SHARE

PRINT THIS DATA

[ ← Previous Day ]
WEATHER ALMANAC - APRIL 26, 2013
[ Next Day → ]
[ °C ]   °F
Weather ElementAverageHighLow
Temperature69.5 °F77 °F (2:35 pm)60.8 °F (5:15 am)
Dewpoint61.7 °F69.8 °F (10:15 pm)48.2 °F (12:55 am)
Humidity76.5 %94 % (9:15 pm)52 % (12:55 am)
Barometer30.20 in30.25 in (12:35 am)30.14 in (11:35 pm)
Wind Speed8 mph15 mph (11:35 pm)
Wind Gust25.3 mph (11:55 pm)
Weather ElementAverage
Visibility10 mi
Wind DirectionESE (117 °)

Weather ElementTotal
Precipitation---
Cooling Degree Days3.9 (Base 65)
Growing Degree Days18.9 (Base 50)
Averaged from 69 records on April 26, 2013
WEATHER CONDITIONS BREAKOUT
WIND DIRECTION BREAKOUT
WEATHER BY HOUR - APRIL 26, 2013
[ °C ]   °F
Local TimeTemperatureDewpointHumidityBarometerVisibilityWind DirectionWind SpeedGust SpeedPrecipitationEventsConditions
12:35 AM66.2 °F50.0 °F56 %30.25 in10.0 miEast (90°)8.1 mphOvercast
12:55 AM66.2 °F48.2 °F52 %30.24 in10.0 miEast (90°)6.9 mphOvercast
1:15 AM66.2 °F48.2 °F52 %30.24 in10.0 miEast (80°)4.6 mphOvercast
1:35 AM66.2 °F50.0 °F56 %30.24 in10.0 miEast (100°)8.1 mphOvercast
2:15 AM64.4 °F50.0 °F59 %30.23 in10.0 miEast (90°)5.8 mphOvercast
2:35 AM64.4 °F50.0 °F59 %30.22 in10.0 miEast (90°)4.6 mphMostly Cloudy
2:55 AM64.4 °F50.0 °F59 %30.22 in10.0 miEast (90°)4.6 mphOvercast
3:15 AM64.4 °F51.8 °F64 %30.21 in10.0 miEast (90°)4.6 mphOvercast
3:35 AM62.6 °F51.8 °F68 %30.20 in10.0 miEast (100°)4.6 mphOvercast
3:55 AM64.4 °F51.8 °F64 %30.20 in10.0 miEast (90°)3.5 mphOvercast
4:15 AM62.6 °F51.8 °F68 %30.19 in10.0 miEast (90°)8.1 mphOvercast
4:35 AM62.6 °F51.8 °F68 %30.19 in10.0 miEast (80°)5.8 mphOvercast
4:55 AM62.6 °F53.6 °F72 %30.18 in10.0 miENE (70°)6.9 mphOvercast
5:15 AM60.8 °F53.6 °F77 %30.19 in10.0 miEast (90°)3.5 mphMostly Cloudy
5:35 AM60.8 °F53.6 °F77 %30.18 in10.0 miEast (90°)3.5 mphClear
5:55 AM60.8 °F53.6 °F77 %30.19 in10.0 miESE (110°)5.8 mphClear
6:15 AM60.8 °F53.6 °F77 %30.19 in10.0 miEast (100°)4.6 mphMostly Cloudy
6:55 AM62.6 °F55.4 °F77 %30.20 in10.0 miEast (80°)5.8 mphOvercast
7:15 AM62.6 °F55.4 °F77 %30.21 in10.0 miEast (80°)4.6 mphOvercast
7:35 AM64.4 °F57.2 °F77 %30.21 in10.0 miEast (80°)5.8 mphOvercast
7:55 AM64.4 °F59.0 °F83 %30.22 in10.0 miEast (80°)4.6 mphOvercast
8:15 AM64.4 °F57.2 °F77 %30.22 in10.0 miEast (90°)6.9 mphOvercast
8:35 AM64.4 °F57.2 °F77 %30.22 in10.0 miEast (90°)5.8 mphOvercast
8:55 AM66.2 °F59.0 °F78 %30.23 in10.0 miEast (80°)6.9 mphOvercast
9:15 AM66.2 °F59.0 °F78 %30.23 in10.0 miEast (90°)8.1 mphOvercast
9:35 AM66.2 °F59.0 °F78 %30.23 in10.0 miEast (80°)4.6 mphOvercast
9:55 AM68.0 °F60.8 °F78 %30.24 in10.0 miEast (90°)4.6 mphOvercast
10:15 AM68.0 °F60.8 °F78 %30.24 in10.0 miEast (100°)4.6 mphOvercast
10:35 AM68.0 °F60.8 °F78 %30.24 in10.0 miEast (90°)3.5 mphOvercast
10:55 AM69.8 °F60.8 °F73 %30.24 in10.0 miEast (80°)5.8 mphOvercast
11:15 AM71.6 °F62.6 °F73 %30.24 in10.0 miEast (100°)9.2 mphOvercast
11:35 AM71.6 °F64.4 °F78 %30.24 in10.0 miEast (100°)9.2 mphOvercast
11:55 AM73.4 °F64.4 °F73 %30.24 in10.0 miESE (110°)9.2 mphOvercast
12:15 PM75.2 °F66.2 °F73 %30.24 in10.0 miSSE (150°)11.5 mph17.3 mphOvercast
12:35 PM73.4 °F64.4 °F73 %30.24 in10.0 miESE (120°)11.5 mphOvercast
12:55 PM75.2 °F66.2 °F73 %30.23 in10.0 miSSE (160°)11.5 mph16.1 mphOvercast
1:15 PM75.2 °F66.2 °F73 %30.23 in10.0 miSSE (150°)10.4 mphOvercast
1:35 PM75.2 °F66.2 °F73 %30.22 in10.0 miSE (140°)11.5 mph17.3 mphOvercast
1:55 PM75.2 °F66.2 °F73 %30.22 in10.0 miSSE (150°)10.4 mphOvercast
2:15 PM75.2 °F64.4 °F69 %30.21 in10.0 miSSE (160°)9.2 mphOvercast
2:35 PM77.0 °F66.2 °F69 %30.21 in10.0 miSSE (160°)10.4 mphOvercast
2:55 PM75.2 °F64.4 °F69 %30.20 in10.0 miSouth (170°)11.5 mphOvercast
3:15 PM75.2 °F66.2 °F73 %30.19 in10.0 miSSE (160°)13.8 mphOvercast
3:35 PM75.2 °F66.2 °F73 %30.19 in10.0 miSSE (150°)11.5 mphOvercast
3:55 PM73.4 °F66.2 °F78 %30.18 in10.0 miSSE (160°)12.7 mph18.4 mphOvercast
4:15 PM75.2 °F68.0 °F78 %30.18 in10.0 miSSE (150°)12.7 mphOvercast
4:35 PM77.0 °F68.0 °F74 %30.17 in10.0 miSSE (160°)10.4 mphMostly Cloudy
4:55 PM75.2 °F66.2 °F73 %30.17 in10.0 miSSE (150°)12.7 mphMostly Cloudy
5:15 PM75.2 °F68.0 °F78 %30.17 in10.0 miSE (140°)8.1 mphOvercast
5:35 PM73.4 °F68.0 °F83 %30.17 in10.0 miSSE (150°)10.4 mphOvercast
5:55 PM73.4 °F68.0 °F83 %30.16 in10.0 miSE (140°)9.2 mphOvercast
6:15 PM73.4 °F68.0 °F83 %30.16 in10.0 miESE (120°)9.2 mphOvercast
6:35 PM73.4 °F68.0 °F83 %30.16 in10.0 miSE (130°)8.1 mphOvercast
6:55 PM73.4 °F68.0 °F83 %30.16 in10.0 miSE (130°)8.1 mphOvercast
7:15 PM73.4 °F68.0 °F83 %30.16 in10.0 miESE (120°)6.9 mphOvercast
7:35 PM73.4 °F68.0 °F83 %30.17 in10.0 miSE (140°)8.1 mphOvercast
7:55 PM73.4 °F68.0 °F83 %30.17 in10.0 miSE (130°)5.8 mphOvercast
8:15 PM71.6 °F68.0 °F88 %30.17 in10.0 miSE (130°)8.1 mphOvercast
8:35 PM71.6 °F68.0 °F88 %30.17 in10.0 miSE (140°)8.1 mphMostly Cloudy
8:55 PM71.6 °F68.0 °F88 %30.17 in10.0 miSE (130°)6.9 mphScattered Clouds
9:15 PM69.8 °F68.0 °F94 %30.18 in10.0 miSE (130°)5.8 mphScattered Clouds
9:35 PM71.6 °F68.0 °F88 %30.18 in10.0 miSE (130°)5.8 mphScattered Clouds
9:55 PM69.8 °F68.0 °F94 %30.18 in10.0 miSE (140°)6.9 mphScattered Clouds
10:15 PM71.6 °F69.8 °F94 %30.18 in10.0 miSE (130°)8.1 mphMostly Cloudy
10:35 PM71.6 °F69.8 °F94 %30.17 in10.0 miSE (140°)9.2 mph16.1 mphOvercast
10:55 PM71.6 °F69.8 °F94 %30.16 in10.0 miSE (140°)12.7 mph19.6 mphOvercast
11:15 PM71.6 °F69.8 °F94 %30.15 in10.0 miSE (130°)12.7 mph20.7 mphOvercast
11:35 PM71.6 °F69.8 °F94 %30.14 in10.0 miSE (140°)15.0 mphOvercast
11:55 PM71.6 °F69.8 °F94 %30.14 in10.0 miSE (140°)15.0 mph25.3 mphOvercast
Hourly data recorded from KUXL, located miles away from Sulphur, Louisiana







STORIES FROM OUR PARTNERS